[[{"header":{"parameterUnit":"m.s-1","parameterCategory":1,"la1":30.2991,"la2":30.254,"lo1":-89.0895,"lo2":-89.0444,"dx":0.0017,"dy":0.0017,"nx":28,"ny":28,"refTime":"2023-01-23T03:00:00:Z","depth":0,"parameterNumber":2,"parameterNumberName":"U-component_of_WINDS"},"data":[0,0,0,0,0,0,0,0,0,0,0,0,0,0,0,0,0,0,0,0,0,0,0,0,0,0,0,0,0,0,0,0,0,0,0,0,0,0,0,0,0,0,0,0,0,0,0,0,0,0,0,0,0,0,0,0,0,0,-2.0569,-2.0569,0,-2.0539,-2.0539,-2.0539,-2.047,-2.0468,-2.0467,-2.0465,-2.0436,-2.0437,-2.0437,0,0,0,0,0,0,0,0,0,0,0,0,0,-2.0567,-2.0567,-2.0569,-2.0569,-2.0568,-2.0539,-2.0539,-2.0539,-2.047,-2.0468,-2.0466,-2.0465,-2.0436,-2.0437,-2.0437,0,0,0,0,0,0,0,0,0,0,0,0,0,-2.0556,-2.0568,-2.0569,-2.0531,-2.0527,-2.0539,-2.0539,-2.0538,-2.047,-2.0468,-2.0466,-2.0464,-2.0436,-2.0437,-2.0437,-2.0486,0,0,-2.044,-2.044,0,0,0,0,0,0,0,0,-2.0557,-2.0556,-2.0537,-2.0533,-2.0529,-2.0506,-2.0527,-2.0521,-2.0471,-2.0492,-2.0465,-2.0463,-2.0461,-2.046,-2.0459,-2.0484,-2.0483,-2.044,-2.0441,-2.0441,-2.0441,0,0,0,0,0,0,0,-2.0557,-2.0557,-2.0557,-2.0536,-2.0532,-2.0515,-2.0511,-2.0526,-2.0489,-2.049,-2.0485,-2.0482,-2.0459,-2.0458,-2.0458,-2.0483,-2.044,-2.0441,-2.0441,-2.0442,-2.0545,-2.0547,0,0,0,0,0,0,-2.0564,-2.0558,-2.0558,-2.0556,-2.0538,-2.0517,-2.0512,-2.0516,-2.0489,-2.0482,-2.0484,-2.0479,-2.0458,-2.0457,-2.0457,-2.051,-2.0441,-2.0442,-2.0442,-2.0542,-2.0545,-2.0547,0,0,0,0,0,0,-2.0564,-2.0564,-2.056,-2.0556,-2.0554,-2.0519,-2.0523,-2.0516,-2.0516,-2.0484,-2.0477,-2.049,-2.0456,-2.0455,-2.0479,-2.0508,-2.0442,-2.0443,-2.054,-2.0543,-2.0546,-2.0618,0,0,0,0,0,0,-2.0564,-2.0565,-2.0583,-2.0557,-2.0554,-2.0582,-2.0525,-2.0517,-2.0517,-2.051,-2.0488,-2.0483,-2.0455,-2.0478,-2.0479,-2.0508,-2.0444,-2.0537,-2.0541,-2.0545,-2.0613,-2.0624,-2.0633,0,0,0,0,0,-2.0564,-2.0605,-2.0584,-2.0585,-2.0576,-2.0584,-2.0583,-2.0549,-2.052,-2.0537,-2.0517,-2.0483,-2.0505,-2.0481,-2.0482,-2.0511,-2.0535,-2.054,-2.0545,-2.0609,-2.0622,-2.0632,0,0,0,0,0,0,-2.0636,-2.0601,-2.0577,-2.0611,-2.0601,-2.0572,-2.0594,-2.0564,-2.0563,-2.0556,-2.0515,-2.0511,-2.0539,-2.0528,-2.0502,-2.0556,-2.0514,-2.052,-2.0562,-2.0574,-2.0584,-2.0586,-2.0444,0,0,0,0,0,-2.0656,-2.0665,-2.0634,-2.0666,-2.0662,-2.0629,-2.0631,-2.0606,-2.0594,-2.059,-2.0571,-2.0562,-2.0566,-2.057,-2.0572,-2.0611,-2.0605,-2.0632,-2.0642,-2.065,-2.0655,-2.0674,-2.0685,-2.0564,-2.0564,-2.0564,0,0,-2.0697,-2.0679,-2.0687,-2.068,-2.067,-2.068,-2.0626,-2.064,-2.0646,-2.0592,-2.0612,-2.0598,-2.0585,-2.0616,-2.0629,-2.0607,-2.0687,-2.0656,-2.0663,-2.0664,-2.068,-2.0691,-2.0702,-2.0567,-2.0567,-2.0566,0,0,-2.0776,-2.0764,-2.0789,-2.0779,-2.0763,-2.074,-2.0746,-2.0722,-2.071,-2.073,-2.0689,-2.0697,-2.0706,-2.0697,-2.0694,-2.0769,-2.0737,-2.0771,-2.0822,-2.0841,-2.085,-2.0858,-2.0884,-2.0894,-2.0776,-2.0777,-2.0777,0,-2.0829,-2.0843,-2.0806,-2.0821,-2.0819,-2.0769,-2.0794,-2.0786,-2.0773,-2.0772,-2.0748,-2.0757,-2.0744,-2.0772,-2.079,-2.079,-2.0795,-2.0773,-2.0852,-2.0859,-2.0867,-2.089,-2.09,-2.0781,-2.078,-2.078,-2.0779,0,-2.0908,-2.0918,-2.094,-2.0926,-2.0927,-2.0947,-2.0913,-2.0918,-2.0893,-2.0873,-2.0893,-2.0876,-2.0873,-2.0878,-2.0854,-2.0902,-2.0889,-2.0859,-2.0816,-2.0883,-2.0904,-2.0913,-2.0786,-2.0785,-2.0784,-2.0783,0,0,-2.1032,-2.0997,-2.1006,-2.0998,-2.0977,-2.0984,-2.1001,-2.0998,-2.1002,-2.0995,-2.1008,-2.1016,-2.0987,-2.0984,-2.0958,-2.0975,-2.1034,-2.0943,-2.0942,-2.0959,-2.1084,-2.1106,-2.1117,-2.1013,-2.1015,-2.1016,-2.1085,0,-2.1106,-2.1133,-2.11,-2.1134,-2.1142,-2.1095,-2.111,-2.1099,-2.108,-2.1084,-2.1064,-2.107,-2.1033,-2.103,-2.1044,-2.1024,-2.1058,-2.1018,-2.1025,-2.1025,-2.1028,-2.1129,-2.1152,-2.1218,-2.1093,-2.1095,-2.1096,0,-2.1195,-2.119,-2.1225,-2.12,-2.1202,-2.1216,-2.121,-2.1215,-2.12,-2.1185,-2.1181,-2.115,-2.1165,-2.1124,-2.1144,-2.1118,-2.1119,-2.1109,-2.1111,-2.1109,-2.1064,-2.1129,-2.1238,-2.1248,-2.1109,-2.1108,-2.1107,0,-2.1281,-2.1283,-2.1303,-2.1299,-2.127,-2.1281,-2.127,-2.1253,-2.1253,-2.1248,-2.1247,-2.1244,-2.1242,-2.124,-2.1209,-2.1182,-2.1233,-2.1189,-2.122,-2.1221,-2.1232,-2.1232,-2.1342,-2.1235,-2.1235,-2.1235,-2.1234,0,-2.1366,-2.1389,-2.1341,-2.1354,-2.1378,-2.134,-2.1365,-2.1349,-2.1334,-2.1343,-2.1303,-2.1312,-2.127,-2.1275,-2.1251,-2.127,-2.127,-2.1259,-2.1252,-2.1262,-2.1263,-2.1261,-2.1255,-2.1237,-2.1237,-2.1236,-2.1236,0,-2.1465,-2.1434,-2.1454,-2.1425,-2.1418,-2.1437,-2.1412,-2.1422,-2.1401,-2.1412,-2.1413,-2.138,-2.1383,-2.1352,-2.1349,-2.1333,-2.1363,-2.1349,-2.1368,-2.1363,-2.1396,-2.1393,-2.1508,-2.152,-2.1406,-2.1407,-2.1408,0,-2.1521,-2.1537,-2.151,-2.1512,-2.1502,-2.1507,-2.1506,-2.1469,-2.1469,-2.1453,-2.1466,-2.1466,-2.1463,-2.1471,-2.1446,-2.1444,-2.1429,-2.1469,-2.1428,-2.1437,-2.1428,-2.1427,-2.1428,-2.1478,-2.1479,-2.148,-2.1481,0,-2.1623,-2.1607,-2.1606,-2.1601,-2.16,-2.1594,-2.1586,-2.159,-2.1549,-2.1552,-2.1554,-2.1552,-2.1549,-2.1549,-2.1542,-2.153,-2.1499,-2.1494,-2.1501,-2.1511,-2.1521,-2.1514,-2.139,-2.1492,-2.1491,-2.149,-2.1489,-2.1489,-2.1702,-2.1713,-2.1695,-2.1696,-2.1685,-2.1678,-2.1685,-2.1664,-2.1665,-2.1659,-2.1637,-2.1643,-2.1627,-2.1614,-2.1605,-2.1609,-2.1589,-2.16,-2.1602,-2.1605,-2.161,-2.1521,-2.1608,-2.1607,-2.1607,-2.1607,-2.1607,0,-2.18,-2.1786,-2.1787,-2.1775,-2.1776,-2.1746,-2.1734,-2.1736,-2.1742,-2.1729,-2.1727,-2.1729,-2.1729,-2.1704,-2.17,-2.1708,-2.1694,-2.1709,-2.1707,-2.1705,-2.1629,-2.1623,-2.172,-2.172,-2.172,-2.172,-2.172,-2.172,-2.1852,-2.187,-2.1851,-2.1863,-2.1848,-2.1853,-2.1849,-2.1841,-2.1831,-2.1835,-2.1833,-2.1817,-2.1799,-2.1794,-2.1792,-2.1784,-2.1785,-2.1804,-2.1792,-2.1721,-2.171,-2.17,-2.1694,-2.1805,-2.1805,-2.1867,-2.1868,-2.1868]},{"header":{"parameterUnit":"m.s-1","parameterCategory":1,"la1":30.2991,"la2":30.254,"lo1":-89.0895,"lo2":-89.0444,"dx":0.0017,"dy":0.0017,"nx":28,"ny":28,"refTime":"2023-01-23T03:00:00:Z","depth":0,"parameterNumber":3,"parameterNumberName":"V-component_of_WINDS"},"data":[0,0,0,0,0,0,0,0,0,0,0,0,0,0,0,0,0,0,0,0,0,0,0,0,0,0,0,0,0,0,0,0,0,0,0,0,0,0,0,0,0,0,0,0,0,0,0,0,0,0,0,0,0,0,0,0,0,0,-2.5047,-2.5048,0,-2.5139,-2.514,-2.5141,-2.5134,-2.5132,-2.5131,-2.513,-2.522,-2.5224,-2.5227,0,0,0,0,0,0,0,0,0,0,0,0,0,-2.4863,-2.4866,-2.5047,-2.5048,-2.5049,-2.5138,-2.514,-2.5141,-2.5134,-2.5132,-2.5131,-2.5129,-2.5219,-2.5223,-2.5228,0,0,0,0,0,0,0,0,0,0,0,0,0,-2.4947,-2.4867,-2.5047,-2.5057,-2.5058,-2.5138,-2.514,-2.5141,-2.5134,-2.5132,-2.513,-2.5128,-2.5217,-2.5223,-2.5228,-2.5303,0,0,-2.5245,-2.5247,0,0,0,0,0,0,0,0,-2.4943,-2.4954,-2.5054,-2.5056,-2.5058,-2.5123,-2.5108,-2.5195,-2.5135,-2.5105,-2.513,-2.5127,-2.5189,-2.5197,-2.5218,-2.5307,-2.5311,-2.5246,-2.5249,-2.5251,-2.5253,0,0,0,0,0,0,0,-2.4937,-2.495,-2.5083,-2.5056,-2.5058,-2.5055,-2.5065,-2.5124,-2.5157,-2.5108,-2.5107,-2.5119,-2.519,-2.5213,-2.522,-2.5313,-2.5245,-2.525,-2.5254,-2.5256,-2.5466,-2.5469,0,0,0,0,0,0,-2.4929,-2.4945,-2.508,-2.5086,-2.4994,-2.506,-2.5071,-2.5104,-2.5157,-2.5163,-2.512,-2.5118,-2.5205,-2.5214,-2.5224,-2.5314,-2.5251,-2.5256,-2.526,-2.5464,-2.5467,-2.5469,0,0,0,0,0,0,-2.4925,-2.4941,-2.5077,-2.5016,-2.5033,-2.5066,-2.5103,-2.5107,-2.513,-2.5166,-2.5172,-2.5138,-2.5203,-2.5216,-2.5283,-2.5317,-2.5259,-2.5264,-2.5461,-2.5465,-2.5468,-2.5496,0,0,0,0,0,0,-2.492,-2.494,-2.497,-2.5016,-2.5036,-2.5136,-2.5105,-2.511,-2.514,-2.5138,-2.5185,-2.519,-2.5203,-2.5275,-2.5289,-2.5323,-2.5268,-2.5459,-2.5463,-2.5467,-2.5492,-2.5499,-2.5506,0,0,0,0,0,-2.4913,-2.4973,-2.4971,-2.4987,-2.5074,-2.5138,-2.5149,-2.5163,-2.5143,-2.5172,-2.5195,-2.5189,-2.5311,-2.5282,-2.5297,-2.5334,-2.5456,-2.5462,-2.5467,-2.5489,-2.5498,-2.5506,0,0,0,0,0,0,-2.4928,-2.4979,-2.4978,-2.5055,-2.5092,-2.5137,-2.5174,-2.5173,-2.5216,-2.5212,-2.5227,-2.5237,-2.5305,-2.5326,-2.5293,-2.5409,-2.5381,-2.5389,-2.5392,-2.5402,-2.5409,-2.5401,-2.5273,0,0,0,0,0,-2.4941,-2.499,-2.5031,-2.5095,-2.5114,-2.5141,-2.5169,-2.5177,-2.5216,-2.5231,-2.526,-2.5297,-2.5343,-2.5374,-2.5419,-2.5495,-2.5504,-2.5528,-2.5535,-2.5541,-2.5547,-2.5588,-2.5599,-2.5486,-2.5486,-2.5486,0,0,-2.4966,-2.5,-2.503,-2.5099,-2.5129,-2.5178,-2.5154,-2.5207,-2.5243,-2.5239,-2.5305,-2.5327,-2.5369,-2.5441,-2.5474,-2.5461,-2.5581,-2.5547,-2.5552,-2.5555,-2.5595,-2.5605,-2.5615,-2.549,-2.5489,-2.5489,0,0,-2.5038,-2.5069,-2.5125,-2.5156,-2.5202,-2.522,-2.5233,-2.5278,-2.5293,-2.5359,-2.5357,-2.5399,-2.548,-2.551,-2.5536,-2.5619,-2.5614,-2.5633,-2.567,-2.571,-2.5718,-2.5726,-2.5755,-2.5765,-2.564,-2.564,-2.564,0,-2.5063,-2.5139,-2.5154,-2.5208,-2.5237,-2.5237,-2.5293,-2.5322,-2.538,-2.54,-2.5385,-2.5485,-2.5514,-2.5592,-2.5613,-2.5634,-2.5649,-2.5627,-2.5716,-2.5724,-2.5732,-2.5759,-2.577,-2.5642,-2.5642,-2.5641,-2.5641,0,-2.5167,-2.5219,-2.5259,-2.5316,-2.535,-2.5405,-2.5427,-2.546,-2.5465,-2.5483,-2.555,-2.5585,-2.5636,-2.5656,-2.5661,-2.5735,-2.5725,-2.5713,-2.5685,-2.5744,-2.577,-2.5781,-2.5645,-2.5644,-2.5643,-2.5643,0,0,-2.525,-2.5315,-2.5329,-2.5355,-2.5406,-2.5446,-2.55,-2.5551,-2.5578,-2.5618,-2.5663,-2.5731,-2.5721,-2.575,-2.5758,-2.5793,-2.5855,-2.5777,-2.5778,-2.5789,-2.5938,-2.5946,-2.5958,-2.5853,-2.5855,-2.5856,-2.5934,0,-2.5326,-2.5423,-2.5438,-2.5523,-2.5571,-2.5571,-2.5618,-2.5653,-2.5673,-2.5715,-2.5735,-2.5783,-2.5766,-2.5783,-2.5818,-2.584,-2.5885,-2.5835,-2.5893,-2.5895,-2.5881,-2.5971,-2.598,-2.6051,-2.5944,-2.5946,-2.5947,0,-2.5427,-2.5471,-2.5561,-2.5605,-2.5625,-2.5667,-2.5715,-2.5756,-2.5796,-2.5807,-2.584,-2.5844,-2.5899,-2.587,-2.5944,-2.591,-2.5935,-2.5949,-2.5953,-2.5958,-2.5924,-2.5978,-2.6075,-2.6085,-2.5963,-2.5962,-2.5961,0,-2.5477,-2.5558,-2.5622,-2.5644,-2.5698,-2.5727,-2.575,-2.5788,-2.5818,-2.586,-2.5879,-2.5927,-2.5952,-2.5988,-2.6004,-2.5982,-2.6078,-2.605,-2.6088,-2.6087,-2.6107,-2.6105,-2.6208,-2.6125,-2.6125,-2.6124,-2.6124,0,-2.5559,-2.5614,-2.5645,-2.5685,-2.5745,-2.5762,-2.5822,-2.5844,-2.5878,-2.592,-2.5924,-2.5963,-2.5983,-2.6025,-2.6038,-2.6098,-2.6109,-2.6119,-2.6121,-2.6118,-2.6117,-2.6134,-2.6129,-2.6127,-2.6127,-2.6126,-2.6126,0,-2.5625,-2.5648,-2.5718,-2.5763,-2.5776,-2.5818,-2.5856,-2.5894,-2.5913,-2.5966,-2.598,-2.6009,-2.6059,-2.6079,-2.614,-2.6149,-2.6217,-2.6216,-2.6204,-2.6204,-2.624,-2.6236,-2.6357,-2.6373,-2.628,-2.6281,-2.6282,0,-2.5675,-2.5718,-2.5767,-2.5797,-2.5821,-2.5869,-2.5899,-2.5917,-2.5949,-2.5998,-2.6029,-2.6079,-2.612,-2.62,-2.6225,-2.6272,-2.6272,-2.6311,-2.6278,-2.6273,-2.6271,-2.6268,-2.6271,-2.6316,-2.6317,-2.6318,-2.6318,0,-2.5762,-2.5772,-2.5817,-2.5866,-2.5903,-2.5942,-2.598,-2.6003,-2.6027,-2.6062,-2.6114,-2.6145,-2.6208,-2.6257,-2.6305,-2.6328,-2.6327,-2.6329,-2.6339,-2.6336,-2.6326,-2.6331,-2.6219,-2.6325,-2.6325,-2.6324,-2.6324,-2.6323,-2.5821,-2.5858,-2.5899,-2.5949,-2.598,-2.6015,-2.6052,-2.6076,-2.612,-2.6173,-2.6181,-2.6236,-2.6274,-2.6338,-2.6363,-2.6405,-2.6395,-2.6411,-2.6415,-2.6419,-2.6421,-2.6321,-2.6414,-2.6414,-2.6414,-2.6414,-2.6414,0,-2.5907,-2.5934,-2.5979,-2.6033,-2.6071,-2.6069,-2.611,-2.6143,-2.6191,-2.6228,-2.6268,-2.6327,-2.6375,-2.6405,-2.6453,-2.6481,-2.6481,-2.6493,-2.649,-2.6495,-2.6428,-2.6413,-2.6491,-2.6491,-2.6491,-2.6491,-2.6491,-2.6491,-2.5956,-2.6019,-2.6033,-2.6111,-2.6136,-2.6191,-2.6215,-2.6248,-2.6277,-2.6343,-2.6383,-2.6402,-2.6436,-2.6486,-2.653,-2.6537,-2.6554,-2.6566,-2.6572,-2.6508,-2.65,-2.6492,-2.6478,-2.657,-2.657,-2.6636,-2.6637,-2.6637]}]]